User: anonymous   Login
Location: Unspecified
(0.0000°N, 0.0000°E)
Time: 04:34:29
(UTC+00:00)
Language:

KUIPER-00021 - Orbit

View from above orbital plane
View from above orbital plane
View from above satellite
View from above satellite

Ground track
Ground track

The orbit is defined by the following mean orbital elements,

1 63736U          26145.33245965 +.00000000 +00000-0 +20692-3 0 00005
2 63736  51.8994 124.1442 0001311  75.4314 284.6794 14.79936669    01
Epoch (UTC): 25 May 2026 07:58:44
Eccentricity: 0.0001311
inclination: 51.8994°
perigee height: 629 km
apogee height: 630 km
right ascension of ascending node: 124.1442°
argument of perigee: 75.4314°
revolutions per day: 14.79936669
mean anomaly at epoch: 284.6794°

The dashed part of the orbit path shows where the satellite is in the earth's shadow,  

DLR